Flag Weather past 2 weeks in Vaughan, Ontario, Canada

Now
32 °F

Scattered showers. Overcast.


Feels Like: 32 °F
Forecast: 29 / 35 °F
Wind: No wind

Location: Toronto Buttonville

Current Time: Nov 26, 2014 at 9:06:34 AM

Latest Report: Nov 26, 2014 at 8:00 AM


Visibility: 15 mi

Pressure: 30.23 "Hg

Humidity: 69%

Dew point: 23 °F

Location of VaughanLocation

Historic Weather in Vaughan — Graph

°F

Vaughan temperature yesterday

Maximum temperature yesterday: 39 °F (at 12:00 AM)
Minimum temperature yesterday: 34 °F (at 3:00 PM)
Average temperature yesterday: 36 °F

Past Weeks' High & Low Weather Summary

 TemperatureHumidityPressure
High61 °F (Nov 11, 2:00 PM)100% (Nov 17, 12:00 AM)30.45 "Hg (Nov 17, 12:00 AM)
Low16 °F (Nov 18, 6:00 AM)46% (Nov 20, 3:00 PM)29.13 "Hg (Nov 24, 1:00 PM)
Average32 °F73%29.95 "Hg
* Reported Nov 11 8:00 AM — Nov 26 8:00 AM, Vaughan, Weather by CustomWeather, © 2014

Note: Actual official high and low records may vary slightly from our data, if they occured in-between our weather recording intervals... More about our weather records

Advertising

Vaughan weather history for previous 24 hours

 ConditionsComfort  
Time TempWeatherWind HumidityBarometerVisibility
8:00 AM
Nov 26
32 °FScattered showers. Overcast.No wind69%30.23 "Hg15 mi
7:00 AM32 °FPassing clouds.3 mph69%30.22 "Hg15 mi
6:00 AM32 °FOvercast.2 mph75%30.24 "Hg15 mi
5:00 AM32 °FOvercast.No wind80%30.22 "Hg15 mi
4:00 AM32 °FOvercast.No wind80%30.23 "Hg15 mi
3:00 AM32 °FOvercast.3 mph80%30.19 "Hg15 mi
2:00 AM32 °FOvercast.5 mph80%30.22 "Hg15 mi
1:00 AM32 °FOvercast.2 mph87%30.22 "Hg12 mi
12:00 AM32 °FMostly cloudy.5 mph87%30.22 "Hg10 mi
11:00 PM
Nov 25
34 °FOvercast.3 mph75%30.20 "Hg12 mi
10:00 PM34 °FPassing clouds.7 mph70%30.16 "Hg15 mi
9:00 PM34 °FPassing clouds.7 mph70%30.14 "Hg15 mi
8:00 PM34 °FPassing clouds.8 mph70%30.11 "Hg15 mi
7:00 PM34 °FPassing clouds.13 mph70%30.08 "Hg15 mi
6:00 PM34 °FPassing clouds.7 mph65%30.05 "Hg15 mi
5:00 PM34 °FSnow flurries. Overcast.9 mph70%30.01 "Hg12 mi
4:00 PM34 °FSnow flurries. Overcast.13 mph70%30.00 "Hg12 mi
3:00 PM34 °FSnow flurries. Overcast.12 mph70%29.96 "Hg12 mi
2:00 PM36 °FSnow flurries. Overcast.14 mph65%29.93 "Hg12 mi
1:00 PM36 °FSnow flurries. Overcast.8 mph70%29.91 "Hg12 mi
12:01 PMN/ASnow flurries.13 mphN/AN/A15 mi
11:00 AM37 °FOvercast.13 mph60%29.87 "Hg15 mi
10:00 AM37 °FOvercast.15 mph65%29.85 "Hg15 mi
9:00 AM36 °FOvercast.13 mph70%29.79 "Hg15 mi
Weather by CustomWeather, © 2014

See weather overviewHow to use our weather pages